STARLINK-32733, 62477

Orbit data source: Space-Track

STARLINK-32733, 62477 is a payload satellite owned by SpaceX/Seattle (US) in LEO that was launched on Tue, 31 Dec 2024 UTC via an FALCON 9 launch vehicle from the Air Force Eastern Test Range (AFETR). Payload-class satellites include a variety of spacecraft equipped with specific instruments for various scientific and technological missions. These include communications satellites like Starlink; space stations such as the ISS; scientific satellites like the Hubble; Earth observation satellites from companies like Planet Labs, Umbra, and HawkEye 360; GPS; miniature CubeSats for education and research; and military/defense satellites.

Loading next visibility...
Identifier
62477, 2024-254R
Orbit
LEO
Country
Flag of USUS
Related business
Manufacturer
SpaceX/Seattle
Mission
Operational Commercial Communications
Bus & Motor
STARLINK V2M, Unknown motor
Mass
730 kg wet, ~700 kg dry
Launch date (UTC)
2024-12-31 (1 year ago)
Launch vehicle
FALCON 9
Launch site
Air Force Eastern Test Range (AFETR)
Object type
Payload
Rocket body
Debris
Shape & HBR
Box + 2 Pan, 17.7 m
Radar Cross Section
33.884 m², Large (>1 m²)

Expand to show TLE details & history
Last TLE update: 1 day ago

TLE from 1 day ago
0 STARLINK-32733
1 62477U 24254R   26125.15912953  .00030573  00000-0  11154-2 0  9996
2 62477  42.9964  57.0794 0000904 336.6812  23.3999 15.27593970 76293
Epoch: 2026-05-05T03:49Z
TLE epoch observation values (Epoch: 2026-05-05T03:49:08.791Z)
Latitude
0.00002°
Longitude
136.75482°
Altitude
482.213 km
Speed
7.626 km/s
True Right ascension
03h 48m 19s
True Declination
0° 00' 00"
Sunlit
Object was in daylight at epoch
Visualization orbit readout
Latitude
Unknown
Longitude
Unknown
Altitude
Unknown
Speed
Unknown
Apparent Right ascension
Unknown
Apparent Declination
Unknown
Sunlit
N/A
Visualization observer readout
Local Sidereal Time
15:10:23
Azimuth
Unknown
Elevation
Unknown
Doppler factor
Unknown
Orbital elements
Apogee altitude
485.573 km
Perigee altitude
484.333 km
Semi-major axis
6,863.09 km
Eccentricity
0.00009
Inclination
42.9964°
RAAN
57.0794°
Arg. of periapsis
336.6812°
True anomaly
23.40401°
Mean anomaly
23.3999°
Eccentric anomaly
23.40196°
Mean motion
3.81736 °/min
Orbital period
94.31 mins
BSTAR
0.0011154
Loading maneuver chart data...
Computing Atmospheric mass density...
Loading historical data...
Loading historical data...
Loading historical data...
Loading historical data...
Loading historical data...
Loading historical data...
Loading historical data...

Documentation

Showing up to 5 results
|